Location: Wien
(48.2082°N, 16.3738°E)
Time: 21:40:40
(UTC+02:00)

UWE-3 - Visible Passes

Search period start: 22 April 2024 00:00
Search period end: 02 May 2024 00:00
Orbit: 569 x 656 km, 97.8° (Epoch: 21 April)

Date Brightness Start Highest point End Pass type
(mag) Time Alt. Az. Time Alt. Az. Time Alt. Az.
22 Apr ? 02:56:22 10° NNE 03:00:14 33° E 03:01:34 27° SE visible
22 Apr ? 04:32:31 10° N 04:36:07 28° WNW 04:38:35 16° WSW visible
23 Apr ? 03:11:08 10° NNE 03:15:15 47° E 03:16:49 32° SSE visible
23 Apr ? 04:47:47 10° NNW 04:50:57 21° WNW 04:53:50 11° WSW visible
24 Apr ? 03:25:58 10° NNE 03:30:13 67° ESE 03:32:01 34° S visible
24 Apr ? 05:03:11 10° NNW 05:05:43 16° WNW 05:08:18 10° W visible
25 Apr ? 02:07:28 10° ENE 02:08:36 11° E 02:09:44 10° ESE visible
25 Apr ? 03:40:50 10° NNE 03:45:08 86° WNW 03:47:12 31° SSW visible
26 Apr ? 02:21:03 10° NE 02:23:39 15° E 02:25:21 13° ESE visible
26 Apr ? 03:55:45 10° N 03:59:59 61° WNW 04:02:21 25° SW visible
27 Apr ? 02:35:18 10° NE 02:38:38 21° E 02:40:27 17° SE visible
27 Apr ? 04:10:42 10° N 04:14:47 44° WNW 04:17:28 20° SW visible
28 Apr ? 02:49:46 10° NE 02:53:34 29° E 02:55:33 21° SE visible
28 Apr ? 04:25:41 10° N 04:29:31 32° WNW 04:32:33 15° SW visible
29 Apr ? 03:04:20 10° NNE 03:08:26 41° E 03:10:36 24° SSE visible
29 Apr ? 04:40:43 10° N 04:44:12 24° WNW 04:47:36 11° WSW visible
30 Apr ? 03:18:57 10° NNE 03:23:14 58° E 03:25:38 25° S visible
30 Apr ? 04:55:51 10° NNW 04:58:49 18° WNW 05:01:49 10° WSW visible
01 May ? 03:33:37 10° NNE 03:37:59 81° ESE 03:40:37 24° S visible
